owner,sensor,date,latitude,longitude,vertical_datum,mass_concentration_of_oxygen_in_sea_water,qcFlag 
SCCF RECON,ioos:station:SCCF:56:1,2017-01-01T00:00:00Z,26.4645,-82.1044,1.57,8.48,1111122 
SCCF RECON,ioos:station:SCCF:56:1,2017-01-01T01:00:00Z,26.4645,-82.1044,1.515,8.3,1111122 
SCCF RECON,ioos:station:SCCF:56:1,2017-01-01T02:00:00Z,26.4645,-82.1044,1.5,7.89,1111122 
SCCF RECON,ioos:station:SCCF:56:1,2017-01-01T03:00:00Z,26.4645,-82.1044,1.57,7.2,1111122 
SCCF RECON,ioos:station:SCCF:56:1,2017-01-01T04:00:00Z,26.4645,-82.1044,1.71,7.4,1111122 
SCCF RECON,ioos:station:SCCF:56:1,2017-01-01T05:00:00Z,26.4645,-82.1044,1.82,6.93,1111122 
SCCF RECON,ioos:station:SCCF:56:1,2017-01-01T06:00:00Z,26.4645,-82.1044,1.89,6.78,1111122 
SCCF RECON,ioos:station:SCCF:56:1,2017-01-01T07:00:00Z,26.4645,-82.1044,1.9,6.7,1111122 
SCCF RECON,ioos:station:SCCF:56:1,2017-01-01T08:00:00Z,26.4645,-82.1044,1.881,7.04,1111122 
SCCF RECON,ioos:station:SCCF:56:1,2017-01-01T09:00:00Z,26.4645,-82.1044,1.79,6.93,1111122 
SCCF RECON,ioos:station:SCCF:56:1,2017-01-01T10:00:00Z,26.4645,-82.1044,1.67,6.44,1111122 
SCCF RECON,ioos:station:SCCF:56:1,2017-01-01T11:00:00Z,26.4645,-82.1044,1.55,6.17,1111122 
SCCF RECON,ioos:station:SCCF:56:1,2017-01-01T12:00:00Z,26.4645,-82.1044,1.425,5.93,1111122 
SCCF RECON,ioos:station:SCCF:56:1,2017-01-01T13:00:00Z,26.4645,-82.1044,1.319,5.6,1111122 
SCCF RECON,ioos:station:SCCF:56:1,2017-01-01T14:00:00Z,26.4645,-82.1044,1.231,5.49,1111122 
SCCF RECON,ioos:station:SCCF:56:1,2017-01-01T15:00:00Z,26.4645,-82.1044,1.23,5.47,1111122 
SCCF RECON,ioos:station:SCCF:56:1,2017-01-01T16:00:00Z,26.4645,-82.1044,1.36,7.35,1111122 
SCCF RECON,ioos:station:SCCF:56:1,2017-01-01T17:00:00Z,26.4645,-82.1044,1.54,8.9,1111122 
SCCF RECON,ioos:station:SCCF:56:1,2017-01-01T18:00:00Z,26.4645,-82.1044,1.66,8.71,1111122 
SCCF RECON,ioos:station:SCCF:56:1,2017-01-01T19:00:00Z,26.4645,-82.1044,1.738,8.61,1111122 
SCCF RECON,ioos:station:SCCF:56:1,2017-01-01T20:00:00Z,26.4645,-82.1044,1.8,8.56,1111122 
SCCF RECON,ioos:station:SCCF:56:1,2017-01-01T21:00:00Z,26.4645,-82.1044,1.83,8.32,1111122 
SCCF RECON,ioos:station:SCCF:56:1,2017-01-01T22:00:00Z,26.4645,-82.1044,1.805,8.3,1111122 
SCCF RECON,ioos:station:SCCF:56:1,2017-01-01T23:00:00Z,26.4645,-82.1044,1.75,8.02,1111122 
SCCF RECON,ioos:station:SCCF:56:1,2017-01-02T00:00:00Z,26.4645,-82.1044,1.69,7.9,1111122 
SCCF RECON,ioos:station:SCCF:56:1,2017-01-02T01:00:00Z,26.4645,-82.1044,1.65,7.61,1111122 
SCCF RECON,ioos:station:SCCF:56:1,2017-01-02T02:00:00Z,26.4645,-82.1044,1.62,7.49,1111122 
SCCF RECON,ioos:station:SCCF:56:1,2017-01-02T03:00:00Z,26.4645,-82.1044,1.63,7.7,1111122 
SCCF RECON,ioos:station:SCCF:56:1,2017-01-02T04:00:00Z,26.4645,-82.1044,1.72,6.51,1111122 
SCCF RECON,ioos:station:SCCF:56:1,2017-01-02T05:00:00Z,26.4645,-82.1044,1.83,7.01,1111122 
SCCF RECON,ioos:station:SCCF:56:1,2017-01-02T06:00:00Z,26.4645,-82.1044,1.91,6.82,1111122 
SCCF RECON,ioos:station:SCCF:56:1,2017-01-02T07:00:00Z,26.4645,-82.1044,1.95,6.67,1111122 
SCCF RECON,ioos:station:SCCF:56:1,2017-01-02T08:00:00Z,26.4645,-82.1044,1.93,6.5,1111122 
SCCF RECON,ioos:station:SCCF:56:1,2017-01-02T09:00:00Z,26.4645,-82.1044,1.85,6.56,1111122 
SCCF RECON,ioos:station:SCCF:56:1,2017-01-02T10:00:00Z,26.4645,-82.1044,1.74,6.33,1111122 
SCCF RECON,ioos:station:SCCF:56:1,2017-01-02T11:00:00Z,26.4645,-82.1044,1.62,5.95,1111122 
SCCF RECON,ioos:station:SCCF:56:1,2017-01-02T12:00:00Z,26.4645,-82.1044,1.49,5.54,1111122 
SCCF RECON,ioos:station:SCCF:56:1,2017-01-02T13:00:00Z,26.4645,-82.1044,1.38,5.29,1111122 
SCCF RECON,ioos:station:SCCF:56:1,2017-01-02T14:00:00Z,26.4645,-82.1044,1.27,5.03,1111122 
SCCF RECON,ioos:station:SCCF:56:1,2017-01-02T15:00:00Z,26.4645,-82.1044,1.195,4.97,1111122 
SCCF RECON,ioos:station:SCCF:56:1,2017-01-02T16:00:00Z,26.4645,-82.1044,1.21,5.05,1111122 
SCCF RECON,ioos:station:SCCF:56:1,2017-01-02T17:00:00Z,26.4645,-82.1044,1.345,7.24,1111122 
SCCF RECON,ioos:station:SCCF:56:1,2017-01-02T18:00:00Z,26.4645,-82.1044,1.47,8.47,1111122 
SCCF RECON,ioos:station:SCCF:56:1,2017-01-02T19:00:00Z,26.4645,-82.1044,1.57,8.53,1111122 
SCCF RECON,ioos:station:SCCF:56:1,2017-01-02T20:00:00Z,26.4645,-82.1044,1.635,8.77,1111122 
SCCF RECON,ioos:station:SCCF:56:1,2017-01-02T21:00:00Z,26.4645,-82.1044,1.69,8.89,1111122 
SCCF RECON,ioos:station:SCCF:56:1,2017-01-02T22:00:00Z,26.4645,-82.1044,1.711,8.47,1111122 
SCCF RECON,ioos:station:SCCF:56:1,2017-01-02T23:00:00Z,26.4645,-82.1044,1.689,8.02,1111122 
SCCF RECON,ioos:station:SCCF:56:1,2017-01-03T00:00:00Z,26.4645,-82.1044,1.59,7.83,1111122 
SCCF RECON,ioos:station:SCCF:56:1,2017-01-03T01:00:00Z,26.4645,-82.1044,1.507,7.39,1111122 
SCCF RECON,ioos:station:SCCF:56:1,2017-01-03T02:00:00Z,26.4645,-82.1044,1.45,6.94,1111122 
SCCF RECON,ioos:station:SCCF:56:1,2017-01-03T03:00:00Z,26.4645,-82.1044,1.448,6.7,1111122 
SCCF RECON,ioos:station:SCCF:56:1,2017-01-03T04:00:00Z,26.4645,-82.1044,1.49,7.02,1111122 
SCCF RECON,ioos:station:SCCF:56:1,2017-01-03T05:00:00Z,26.4645,-82.1044,1.58,6.18,1111122 
SCCF RECON,ioos:station:SCCF:56:1,2017-01-03T06:00:00Z,26.4645,-82.1044,1.68,6.61,1111122 
SCCF RECON,ioos:station:SCCF:56:1,2017-01-03T07:00:00Z,26.4645,-82.1044,1.75,6.42,1111122 
SCCF RECON,ioos:station:SCCF:56:1,2017-01-03T08:00:00Z,26.4645,-82.1044,1.76,6.16,1111122 
SCCF RECON,ioos:station:SCCF:56:1,2017-01-03T09:00:00Z,26.4645,-82.1044,1.73,6.22,1111122 
SCCF RECON,ioos:station:SCCF:56:1,2017-01-03T10:00:00Z,26.4645,-82.1044,1.72,6.16,1111122 
SCCF RECON,ioos:station:SCCF:56:1,2017-01-03T11:00:00Z,26.4645,-82.1044,1.68,6.21,1111122 
SCCF RECON,ioos:station:SCCF:56:1,2017-01-03T12:00:00Z,26.4645,-82.1044,1.568,5.58,1111122 
SCCF RECON,ioos:station:SCCF:56:1,2017-01-03T13:00:00Z,26.4645,-82.1044,1.44,5.14,1111122 
SCCF RECON,ioos:station:SCCF:56:1,2017-01-03T14:00:00Z,26.4645,-82.1044,1.34,4.71,1111122 
SCCF RECON,ioos:station:SCCF:56:1,2017-01-03T15:00:00Z,26.4645,-82.1044,1.23,4.53,1111122 
SCCF RECON,ioos:station:SCCF:56:1,2017-01-03T16:00:00Z,26.4645,-82.1044,1.18,4.51,1111122 
SCCF RECON,ioos:station:SCCF:56:1,2017-01-03T17:00:00Z,26.4645,-82.1044,1.227,4.69,1111122 
SCCF RECON,ioos:station:SCCF:56:1,2017-01-03T18:00:00Z,26.4645,-82.1044,1.35,7.37,1111122 
SCCF RECON,ioos:station:SCCF:56:1,2017-01-03T19:00:00Z,26.4645,-82.1044,1.475,7.69,1111122 
SCCF RECON,ioos:station:SCCF:56:1,2017-01-03T20:00:00Z,26.4645,-82.1044,1.57,7.95,1111122 
SCCF RECON,ioos:station:SCCF:56:1,2017-01-03T21:00:00Z,26.4645,-82.1044,1.67,7.93,1111122 
SCCF RECON,ioos:station:SCCF:56:1,2017-01-03T22:00:00Z,26.4645,-82.1044,1.711,7.67,1111122 
SCCF RECON,ioos:station:SCCF:56:1,2017-01-03T23:00:00Z,26.4645,-82.1044,1.71,7.2,1111122 
SCCF RECON,ioos:station:SCCF:56:1,2017-01-04T00:00:00Z,26.4645,-82.1044,1.645,7.64,1111122 
SCCF RECON,ioos:station:SCCF:56:1,2017-01-04T01:00:00Z,26.4645,-82.1044,1.55,7.12,1111122 
SCCF RECON,ioos:station:SCCF:56:1,2017-01-04T02:00:00Z,26.4645,-82.1044,1.49,7.05,1111122 
SCCF RECON,ioos:station:SCCF:56:1,2017-01-04T03:00:00Z,26.4645,-82.1044,1.46,6.53,1111122 
SCCF RECON,ioos:station:SCCF:56:1,2017-01-04T04:00:00Z,26.4645,-82.1044,1.43,6.25,1111122 
SCCF RECON,ioos:station:SCCF:56:1,2017-01-04T05:00:00Z,26.4645,-82.1044,1.47,6.42,1111122 
SCCF RECON,ioos:station:SCCF:56:1,2017-01-04T06:00:00Z,26.4645,-82.1044,1.55,5.44,1111122 
SCCF RECON,ioos:station:SCCF:56:1,2017-01-04T07:00:00Z,26.4645,-82.1044,1.63,5.95,1111122 
SCCF RECON,ioos:station:SCCF:56:1,2017-01-04T08:00:00Z,26.4645,-82.1044,1.7,6.19,1111122 
SCCF RECON,ioos:station:SCCF:56:1,2017-01-04T09:00:00Z,26.4645,-82.1044,1.74,6.06,1111122 
SCCF RECON,ioos:station:SCCF:56:1,2017-01-04T10:00:00Z,26.4645,-82.1044,1.76,6.0,1111122 
SCCF RECON,ioos:station:SCCF:56:1,2017-01-04T11:00:00Z,26.4645,-82.1044,1.74,5.44,1111122 
SCCF RECON,ioos:station:SCCF:56:1,2017-01-04T12:00:00Z,26.4645,-82.1044,1.64,5.49,1111122 
SCCF RECON,ioos:station:SCCF:56:1,2017-01-04T13:00:00Z,26.4645,-82.1044,1.54,5.22,1111122 
SCCF RECON,ioos:station:SCCF:56:1,2017-01-04T14:00:00Z,26.4645,-82.1044,1.43,4.66,1111122 
SCCF RECON,ioos:station:SCCF:56:1,2017-01-04T15:00:00Z,26.4645,-82.1044,1.334,4.43,1111122 
SCCF RECON,ioos:station:SCCF:56:1,2017-01-04T16:00:00Z,26.4645,-82.1044,1.28,4.42,1111122 
SCCF RECON,ioos:station:SCCF:56:1,2017-01-04T17:00:00Z,26.4645,-82.1044,1.25,4.47,1111122 
SCCF RECON,ioos:station:SCCF:56:1,2017-01-04T18:00:00Z,26.4645,-82.1044,1.321,5.18,1111122 
SCCF RECON,ioos:station:SCCF:56:1,2017-01-04T19:00:00Z,26.4645,-82.1044,1.44,7.43,1111122 
SCCF RECON,ioos:station:SCCF:56:1,2017-01-04T20:00:00Z,26.4645,-82.1044,1.56,7.46,1111122 
SCCF RECON,ioos:station:SCCF:56:1,2017-01-04T21:00:00Z,26.4645,-82.1044,1.66,7.03,1111122 
SCCF RECON,ioos:station:SCCF:56:1,2017-01-04T22:00:00Z,26.4645,-82.1044,1.74,6.96,1111122 
SCCF RECON,ioos:station:SCCF:56:1,2017-01-04T23:00:00Z,26.4645,-82.1044,1.75,6.62,1111122 
SCCF RECON,ioos:station:SCCF:56:1,2017-01-05T00:00:00Z,26.4645,-82.1044,1.7,7.02,1111122 
SCCF RECON,ioos:station:SCCF:56:1,2017-01-05T01:00:00Z,26.4645,-82.1044,1.621,6.99,1111122 
SCCF RECON,ioos:station:SCCF:56:1,2017-01-05T02:00:00Z,26.4645,-82.1044,1.53,6.31,1111122 
SCCF RECON,ioos:station:SCCF:56:1,2017-01-05T03:00:00Z,26.4645,-82.1044,1.45,5.91,1111122 
SCCF RECON,ioos:station:SCCF:56:1,2017-01-05T04:00:00Z,26.4645,-82.1044,1.37,5.34,1111122 
SCCF RECON,ioos:station:SCCF:56:1,2017-01-05T05:00:00Z,26.4645,-82.1044,1.31,4.94,1111122 
SCCF RECON,ioos:station:SCCF:56:1,2017-01-05T06:00:00Z,26.4645,-82.1044,1.31,4.67,1111122 
SCCF RECON,ioos:station:SCCF:56:1,2017-01-05T07:00:00Z,26.4645,-82.1044,1.361,4.91,1111122 
SCCF RECON,ioos:station:SCCF:56:1,2017-01-05T08:00:00Z,26.4645,-82.1044,1.47,4.8,1111122 
SCCF RECON,ioos:station:SCCF:56:1,2017-01-05T09:00:00Z,26.4645,-82.1044,1.56,4.54,1111122 
SCCF RECON,ioos:station:SCCF:56:1,2017-01-05T10:00:00Z,26.4645,-82.1044,1.61,5.53,1111122 
SCCF RECON,ioos:station:SCCF:56:1,2017-01-05T11:00:00Z,26.4645,-82.1044,1.63,5.48,1111122 
SCCF RECON,ioos:station:SCCF:56:1,2017-01-05T12:00:00Z,26.4645,-82.1044,1.6,5.23,1111122 
SCCF RECON,ioos:station:SCCF:56:1,2017-01-05T13:00:00Z,26.4645,-82.1044,1.52,4.94,1111122 
SCCF RECON,ioos:station:SCCF:56:1,2017-01-05T14:00:00Z,26.4645,-82.1044,1.43,4.57,1111122 
SCCF RECON,ioos:station:SCCF:56:1,2017-01-05T15:00:00Z,26.4645,-82.1044,1.359,4.16,1111122 
SCCF RECON,ioos:station:SCCF:56:1,2017-01-05T16:00:00Z,26.4645,-82.1044,1.307,3.91,1111122 
SCCF RECON,ioos:station:SCCF:56:1,2017-01-05T17:00:00Z,26.4645,-82.1044,1.28,4.0,1111122 
SCCF RECON,ioos:station:SCCF:56:1,2017-01-05T18:00:00Z,26.4645,-82.1044,1.276,3.91,1111122 
SCCF RECON,ioos:station:SCCF:56:1,2017-01-05T19:00:00Z,26.4645,-82.1044,1.298,4.83,1111122 
SCCF RECON,ioos:station:SCCF:56:1,2017-01-05T20:00:00Z,26.4645,-82.1044,1.41,8.69,1111122 
SCCF RECON,ioos:station:SCCF:56:1,2017-01-05T21:00:00Z,26.4645,-82.1044,1.54,8.57,1111122 
SCCF RECON,ioos:station:SCCF:56:1,2017-01-05T22:00:00Z,26.4645,-82.1044,1.63,8.02,1111122 
SCCF RECON,ioos:station:SCCF:56:1,2017-01-05T23:00:00Z,26.4645,-82.1044,1.7,7.66,1111122 
SCCF RECON,ioos:station:SCCF:56:1,2017-01-06T00:00:00Z,26.4645,-82.1044,1.73,7.14,1111122 
SCCF RECON,ioos:station:SCCF:56:1,2017-01-06T01:00:00Z,26.4645,-82.1044,1.71,7.32,1111122 
SCCF RECON,ioos:station:SCCF:56:1,2017-01-06T02:00:00Z,26.4645,-82.1044,1.62,7.59,1111122 
SCCF RECON,ioos:station:SCCF:56:1,2017-01-06T03:00:00Z,26.4645,-82.1044,1.52,6.91,1111122 
SCCF RECON,ioos:station:SCCF:56:1,2017-01-06T04:00:00Z,26.4645,-82.1044,1.43,6.39,1111122 
SCCF RECON,ioos:station:SCCF:56:1,2017-01-06T05:00:00Z,26.4645,-82.1044,1.363,5.94,1111122 
SCCF RECON,ioos:station:SCCF:56:1,2017-01-06T06:00:00Z,26.4645,-82.1044,1.3,5.46,1111122 
SCCF RECON,ioos:station:SCCF:56:1,2017-01-06T07:00:00Z,26.4645,-82.1044,1.26,5.16,1111122 
SCCF RECON,ioos:station:SCCF:56:1,2017-01-06T08:00:00Z,26.4645,-82.1044,1.31,5.27,1111122 
SCCF RECON,ioos:station:SCCF:56:1,2017-01-06T09:00:00Z,26.4645,-82.1044,1.43,4.59,1111122 
SCCF RECON,ioos:station:SCCF:56:1,2017-01-06T10:00:00Z,26.4645,-82.1044,1.52,3.64,1111122 
SCCF RECON,ioos:station:SCCF:56:1,2017-01-06T11:00:00Z,26.4645,-82.1044,1.58,5.32,1111122 
SCCF RECON,ioos:station:SCCF:56:1,2017-01-06T12:00:00Z,26.4645,-82.1044,1.62,5.21,1111122 
SCCF RECON,ioos:station:SCCF:56:1,2017-01-06T13:00:00Z,26.4645,-82.1044,1.631,5.96,1111122 
SCCF RECON,ioos:station:SCCF:56:1,2017-01-06T14:00:00Z,26.4645,-82.1044,1.6,5.79,1111122 
SCCF RECON,ioos:station:SCCF:56:1,2017-01-06T15:00:00Z,26.4645,-82.1044,1.54,5.71,1111122 
SCCF RECON,ioos:station:SCCF:56:1,2017-01-06T16:00:00Z,26.4645,-82.1044,1.47,5.47,1111122 
SCCF RECON,ioos:station:SCCF:56:1,2017-01-06T17:00:00Z,26.4645,-82.1044,1.413,5.4,1111122 
SCCF RECON,ioos:station:SCCF:56:1,2017-01-06T18:00:00Z,26.4645,-82.1044,1.35,5.36,1111122 
SCCF RECON,ioos:station:SCCF:56:1,2017-01-06T19:00:00Z,26.4645,-82.1044,1.356,5.5,1111122 
SCCF RECON,ioos:station:SCCF:56:1,2017-01-06T20:00:00Z,26.4645,-82.1044,1.45,8.34,1111122 
SCCF RECON,ioos:station:SCCF:56:1,2017-01-06T21:00:00Z,26.4645,-82.1044,1.564,8.54,1111122 
SCCF RECON,ioos:station:SCCF:56:1,2017-01-06T22:00:00Z,26.4645,-82.1044,1.66,7.9,1111122 
SCCF RECON,ioos:station:SCCF:56:1,2017-01-06T23:00:00Z,26.4645,-82.1044,1.75,7.35,1111122 
SCCF RECON,ioos:station:SCCF:56:1,2017-01-07T00:00:00Z,26.4645,-82.1044,1.83,7.19,1111122 
SCCF RECON,ioos:station:SCCF:56:1,2017-01-07T01:00:00Z,26.4645,-82.1044,1.88,7.0,1111122 
SCCF RECON,ioos:station:SCCF:56:1,2017-01-07T02:00:00Z,26.4645,-82.1044,1.87,6.79,1111122 
SCCF RECON,ioos:station:SCCF:56:1,2017-01-07T03:00:00Z,26.4645,-82.1044,1.78,6.88,1111122 
SCCF RECON,ioos:station:SCCF:56:1,2017-01-07T04:00:00Z,26.4645,-82.1044,1.69,6.6,1111122 
SCCF RECON,ioos:station:SCCF:56:1,2017-01-07T05:00:00Z,26.4645,-82.1044,1.59,6.34,1111122 
SCCF RECON,ioos:station:SCCF:56:1,2017-01-07T06:00:00Z,26.4645,-82.1044,1.5,5.96,1111122 
SCCF RECON,ioos:station:SCCF:56:1,2017-01-07T07:00:00Z,26.4645,-82.1044,1.4,5.48,1111122 
SCCF RECON,ioos:station:SCCF:56:1,2017-01-07T08:00:00Z,26.4645,-82.1044,1.34,5.19,1111122 
SCCF RECON,ioos:station:SCCF:56:1,2017-01-07T09:00:00Z,26.4645,-82.1044,1.42,5.1,1111122 
SCCF RECON,ioos:station:SCCF:56:1,2017-01-07T10:00:00Z,26.4645,-82.1044,1.53,4.75,1111122 
SCCF RECON,ioos:station:SCCF:56:1,2017-01-07T11:00:00Z,26.4645,-82.1044,1.64,5.53,1111122 
SCCF RECON,ioos:station:SCCF:56:1,2017-01-07T12:00:00Z,26.4645,-82.1044,1.73,6.22,1111122 
SCCF RECON,ioos:station:SCCF:56:1,2017-01-07T13:00:00Z,26.4645,-82.1044,1.78,6.37,1111122 
SCCF RECON,ioos:station:SCCF:56:1,2017-01-07T14:00:00Z,26.4645,-82.1044,1.78,5.76,1111122 
SCCF RECON,ioos:station:SCCF:56:1,2017-01-07T15:00:00Z,26.4645,-82.1044,1.76,6.01,1111122 
SCCF RECON,ioos:station:SCCF:56:1,2017-01-07T16:00:00Z,26.4645,-82.1044,1.789,5.86,1111122 
SCCF RECON,ioos:station:SCCF:56:1,2017-01-07T17:00:00Z,26.4645,-82.1044,1.722,5.91,1111122 
SCCF RECON,ioos:station:SCCF:56:1,2017-01-07T18:00:00Z,26.4645,-82.1044,1.62,5.75,1111122 
SCCF RECON,ioos:station:SCCF:56:1,2017-01-07T19:00:00Z,26.4645,-82.1044,1.539,5.05,1111122 
SCCF RECON,ioos:station:SCCF:56:1,2017-01-07T20:00:00Z,26.4645,-82.1044,1.491,5.18,1111122 
SCCF RECON,ioos:station:SCCF:56:1,2017-01-07T21:00:00Z,26.4645,-82.1044,1.47,5.19,1111122 
SCCF RECON,ioos:station:SCCF:56:1,2017-01-07T22:00:00Z,26.4645,-82.1044,1.46,5.42,1111122 
SCCF RECON,ioos:station:SCCF:56:1,2017-01-07T23:00:00Z,26.4645,-82.1044,1.483,5.31,1111122 
SCCF RECON,ioos:station:SCCF:56:1,2017-01-08T00:00:00Z,26.4645,-82.1044,1.53,5.36,1111122 
SCCF RECON,ioos:station:SCCF:56:1,2017-01-08T01:00:00Z,26.4645,-82.1044,1.55,5.63,1111122 
SCCF RECON,ioos:station:SCCF:56:1,2017-01-08T02:00:00Z,26.4645,-82.1044,1.544,5.84,1111122 
SCCF RECON,ioos:station:SCCF:56:1,2017-01-08T03:00:00Z,26.4645,-82.1044,1.519,5.8,1111122 
SCCF RECON,ioos:station:SCCF:56:1,2017-01-08T04:00:00Z,26.4645,-82.1044,1.466,5.54,1111122 
SCCF RECON,ioos:station:SCCF:56:1,2017-01-08T05:00:00Z,26.4645,-82.1044,1.354,5.59,1111122 
SCCF RECON,ioos:station:SCCF:56:1,2017-01-08T06:00:00Z,26.4645,-82.1044,1.245,5.63,1111122 
SCCF RECON,ioos:station:SCCF:56:1,2017-01-08T07:00:00Z,26.4645,-82.1044,1.09,5.77,1111122 
SCCF RECON,ioos:station:SCCF:56:1,2017-01-08T08:00:00Z,26.4645,-82.1044,0.981,5.79,1111122 
SCCF RECON,ioos:station:SCCF:56:1,2017-01-08T09:00:00Z,26.4645,-82.1044,0.88,5.88,1111122 
SCCF RECON,ioos:station:SCCF:56:1,2017-01-08T10:00:00Z,26.4645,-82.1044,0.833,6.06,1111122 
SCCF RECON,ioos:station:SCCF:56:1,2017-01-08T11:00:00Z,26.4645,-82.1044,0.871,6.2,1111122 
SCCF RECON,ioos:station:SCCF:56:1,2017-01-08T12:00:00Z,26.4645,-82.1044,0.97,6.59,1111122 
SCCF RECON,ioos:station:SCCF:56:1,2017-01-08T13:00:00Z,26.4645,-82.1044,1.09,8.38,1111122 
SCCF RECON,ioos:station:SCCF:56:1,2017-01-08T14:00:00Z,26.4645,-82.1044,1.173,8.52,1111122 
SCCF RECON,ioos:station:SCCF:56:1,2017-01-08T15:00:00Z,26.4645,-82.1044,1.233,8.97,1111122 
SCCF RECON,ioos:station:SCCF:56:1,2017-01-08T16:00:00Z,26.4645,-82.1044,1.249,8.89,1111122 
SCCF RECON,ioos:station:SCCF:56:1,2017-01-08T17:00:00Z,26.4645,-82.1044,1.261,8.89,1111122 
SCCF RECON,ioos:station:SCCF:56:1,2017-01-08T18:00:00Z,26.4645,-82.1044,1.26,9.14,1111122 
SCCF RECON,ioos:station:SCCF:56:1,2017-01-08T19:00:00Z,26.4645,-82.1044,1.266,9.53,1111122 
SCCF RECON,ioos:station:SCCF:56:1,2017-01-08T20:00:00Z,26.4645,-82.1044,1.277,9.63,1111122 
SCCF RECON,ioos:station:SCCF:56:1,2017-01-08T21:00:00Z,26.4645,-82.1044,1.28,10.11,1111122 
SCCF RECON,ioos:station:SCCF:56:1,2017-01-08T22:00:00Z,26.4645,-82.1044,1.334,10.78,1111122 
SCCF RECON,ioos:station:SCCF:56:1,2017-01-08T23:00:00Z,26.4645,-82.1044,1.48,10.56,1111122 
SCCF RECON,ioos:station:SCCF:56:1,2017-01-09T00:00:00Z,26.4645,-82.1044,1.62,9.99,1111122 
SCCF RECON,ioos:station:SCCF:56:1,2017-01-09T01:00:00Z,26.4645,-82.1044,1.74,9.12,1111122 
SCCF RECON,ioos:station:SCCF:56:1,2017-01-09T02:00:00Z,26.4645,-82.1044,1.819,9.07,1111122 
SCCF RECON,ioos:station:SCCF:56:1,2017-01-09T03:00:00Z,26.4645,-82.1044,1.748,9.01,1111122 
SCCF RECON,ioos:station:SCCF:56:1,2017-01-09T04:00:00Z,26.4645,-82.1044,1.643,8.97,1111122 
SCCF RECON,ioos:station:SCCF:56:1,2017-01-09T05:00:00Z,26.4645,-82.1044,1.52,8.93,1111122 
SCCF RECON,ioos:station:SCCF:56:1,2017-01-09T06:00:00Z,26.4645,-82.1044,1.412,8.84,1111122 
SCCF RECON,ioos:station:SCCF:56:1,2017-01-09T07:00:00Z,26.4645,-82.1044,1.292,8.66,1111122 
SCCF RECON,ioos:station:SCCF:56:1,2017-01-09T08:00:00Z,26.4645,-82.1044,1.169,8.65,1111122 
SCCF RECON,ioos:station:SCCF:56:1,2017-01-09T09:00:00Z,26.4645,-82.1044,1.059,8.5,1111122 
SCCF RECON,ioos:station:SCCF:56:1,2017-01-09T10:00:00Z,26.4645,-82.1044,0.958,8.36,1111122 
SCCF RECON,ioos:station:SCCF:56:1,2017-01-09T11:00:00Z,26.4645,-82.1044,0.935,8.22,1111122 
SCCF RECON,ioos:station:SCCF:56:1,2017-01-09T12:00:00Z,26.4645,-82.1044,1.044,8.89,1111122 
SCCF RECON,ioos:station:SCCF:56:1,2017-01-09T13:00:00Z,26.4645,-82.1044,1.217,9.43,1111122 
SCCF RECON,ioos:station:SCCF:56:1,2017-01-09T14:00:00Z,26.4645,-82.1044,1.35,9.58,1111122 
SCCF RECON,ioos:station:SCCF:56:1,2017-01-09T15:00:00Z,26.4645,-82.1044,1.47,9.85,1111122 
SCCF RECON,ioos:station:SCCF:56:1,2017-01-09T16:00:00Z,26.4645,-82.1044,1.55,10.14,1111122 
SCCF RECON,ioos:station:SCCF:56:1,2017-01-09T17:00:00Z,26.4645,-82.1044,1.57,9.96,1111122 
SCCF RECON,ioos:station:SCCF:56:1,2017-01-09T18:00:00Z,26.4645,-82.1044,1.515,10.07,1111122 
SCCF RECON,ioos:station:SCCF:56:1,2017-01-09T19:00:00Z,26.4645,-82.1044,1.43,9.94,1111122 
SCCF RECON,ioos:station:SCCF:56:1,2017-01-09T20:00:00Z,26.4645,-82.1044,1.39,10.03,1111122 
SCCF RECON,ioos:station:SCCF:56:1,2017-01-09T21:00:00Z,26.4645,-82.1044,1.4,10.36,1111122 
SCCF RECON,ioos:station:SCCF:56:1,2017-01-09T22:00:00Z,26.4645,-82.1044,1.464,11.0,1111122 
SCCF RECON,ioos:station:SCCF:56:1,2017-01-09T23:00:00Z,26.4645,-82.1044,1.566,11.51,1111122 
SCCF RECON,ioos:station:SCCF:56:1,2017-01-10T00:00:00Z,26.4645,-82.1044,1.66,10.65,1111122 
SCCF RECON,ioos:station:SCCF:56:1,2017-01-10T01:00:00Z,26.4645,-82.1044,1.76,10.03,1111122 
SCCF RECON,ioos:station:SCCF:56:1,2017-01-10T02:00:00Z,26.4645,-82.1044,1.84,9.72,1111122 
SCCF RECON,ioos:station:SCCF:56:1,2017-01-10T03:00:00Z,26.4645,-82.1044,1.889,9.53,1111122 
SCCF RECON,ioos:station:SCCF:56:1,2017-01-10T04:00:00Z,26.4645,-82.1044,1.87,9.51,1111122 
SCCF RECON,ioos:station:SCCF:56:1,2017-01-10T05:00:00Z,26.4645,-82.1044,1.76,9.47,1111122 
SCCF RECON,ioos:station:SCCF:56:1,2017-01-10T06:00:00Z,26.4645,-82.1044,1.621,9.45,1111122 
SCCF RECON,ioos:station:SCCF:56:1,2017-01-10T07:00:00Z,26.4645,-82.1044,1.481,9.12,1111122 
SCCF RECON,ioos:station:SCCF:56:1,2017-01-10T08:00:00Z,26.4645,-82.1044,1.35,8.95,1111122 
SCCF RECON,ioos:station:SCCF:56:1,2017-01-10T09:00:00Z,26.4645,-82.1044,1.217,8.68,1111122 
SCCF RECON,ioos:station:SCCF:56:1,2017-01-10T10:00:00Z,26.4645,-82.1044,1.097,8.47,1111122 
SCCF RECON,ioos:station:SCCF:56:1,2017-01-10T11:00:00Z,26.4645,-82.1044,1.02,8.07,1111122 
SCCF RECON,ioos:station:SCCF:56:1,2017-01-10T12:00:00Z,26.4645,-82.1044,1.06,8.03,1111122 
SCCF RECON,ioos:station:SCCF:56:1,2017-01-10T13:00:00Z,26.4645,-82.1044,1.25,8.86,1111122 
SCCF RECON,ioos:station:SCCF:56:1,2017-01-10T14:00:00Z,26.4645,-82.1044,1.41,8.84,1111122 
SCCF RECON,ioos:station:SCCF:56:1,2017-01-10T15:00:00Z,26.4645,-82.1044,1.55,9.69,1111122 
SCCF RECON,ioos:station:SCCF:56:1,2017-01-10T16:00:00Z,26.4645,-82.1044,1.68,10.41,1111122 
SCCF RECON,ioos:station:SCCF:56:1,2017-01-10T17:00:00Z,26.4645,-82.1044,1.75,10.28,1111122 
SCCF RECON,ioos:station:SCCF:56:1,2017-01-10T18:00:00Z,26.4645,-82.1044,1.761,10.56,1111122 
SCCF RECON,ioos:station:SCCF:56:1,2017-01-10T19:00:00Z,26.4645,-82.1044,1.72,10.48,1111122 
SCCF RECON,ioos:station:SCCF:56:1,2017-01-10T20:00:00Z,26.4645,-82.1044,1.64,10.45,1111122 
SCCF RECON,ioos:station:SCCF:56:1,2017-01-10T21:00:00Z,26.4645,-82.1044,1.58,10.35,1111122 
SCCF RECON,ioos:station:SCCF:56:1,2017-01-10T22:00:00Z,26.4645,-82.1044,1.611,10.85,1111122 
SCCF RECON,ioos:station:SCCF:56:1,2017-01-10T23:00:00Z,26.4645,-82.1044,1.66,10.94,1111122 
SCCF RECON,ioos:station:SCCF:56:1,2017-01-11T00:00:00Z,26.4645,-82.1044,1.767,10.38,1111122 
SCCF RECON,ioos:station:SCCF:56:1,2017-01-11T01:00:00Z,26.4645,-82.1044,1.88,9.93,1111122 
SCCF RECON,ioos:station:SCCF:56:1,2017-01-11T02:00:00Z,26.4645,-82.1044,1.97,9.78,1111122 
SCCF RECON,ioos:station:SCCF:56:1,2017-01-11T03:00:00Z,26.4645,-82.1044,2.03,9.98,1111122 
SCCF RECON,ioos:station:SCCF:56:1,2017-01-11T04:00:00Z,26.4645,-82.1044,2.1,9.66,1111122 
SCCF RECON,ioos:station:SCCF:56:1,2017-01-11T05:00:00Z,26.4645,-82.1044,2.11,9.4,1111122 
SCCF RECON,ioos:station:SCCF:56:1,2017-01-11T06:00:00Z,26.4645,-82.1044,1.99,9.36,1111122 
SCCF RECON,ioos:station:SCCF:56:1,2017-01-11T07:00:00Z,26.4645,-82.1044,1.8,9.26,1111122 
SCCF RECON,ioos:station:SCCF:56:1,2017-01-11T08:00:00Z,26.4645,-82.1044,1.63,8.87,1111122 
SCCF RECON,ioos:station:SCCF:56:1,2017-01-11T09:00:00Z,26.4645,-82.1044,1.461,8.6,1111122 
SCCF RECON,ioos:station:SCCF:56:1,2017-01-11T10:00:00Z,26.4645,-82.1044,1.31,8.33,1111122 
SCCF RECON,ioos:station:SCCF:56:1,2017-01-11T11:00:00Z,26.4645,-82.1044,1.18,8.01,1111122 
SCCF RECON,ioos:station:SCCF:56:1,2017-01-11T12:00:00Z,26.4645,-82.1044,1.09,7.71,1111122 
SCCF RECON,ioos:station:SCCF:56:1,2017-01-11T13:00:00Z,26.4645,-82.1044,1.13,7.44,1111122 
SCCF RECON,ioos:station:SCCF:56:1,2017-01-11T14:00:00Z,26.4645,-82.1044,1.31,8.77,1111122 
SCCF RECON,ioos:station:SCCF:56:1,2017-01-11T15:00:00Z,26.4645,-82.1044,1.47,8.79,1111122 
SCCF RECON,ioos:station:SCCF:56:1,2017-01-11T16:00:00Z,26.4645,-82.1044,1.6,9.92,1111122 
SCCF RECON,ioos:station:SCCF:56:1,2017-01-11T17:00:00Z,26.4645,-82.1044,1.698,10.31,1111122 
SCCF RECON,ioos:station:SCCF:56:1,2017-01-11T18:00:00Z,26.4645,-82.1044,1.73,10.45,1111122 
SCCF RECON,ioos:station:SCCF:56:1,2017-01-11T19:00:00Z,26.4645,-82.1044,1.706,10.4,1111122 
SCCF RECON,ioos:station:SCCF:56:1,2017-01-11T20:00:00Z,26.4645,-82.1044,1.63,10.07,1111122 